This is the latest recevied weather packets stored in our database for station/object KB4RFE. If no packets are shown the sender has not sent any weather packets the latest 10 day(s).
| Time | Temp. | Humidity | Pressure | Rain* | Wind** | Luminosity | Snow |
|---|---|---|---|---|---|---|---|
| 1788093651 | 25.56° C | 93% | 1023.9 hPa | 0 mm | - | 128 W/m² | - |
| 1788093349 | 25° C | 95% | 1023.9 hPa | 0 mm | - | 135 W/m² | - |
| 1788093049 | 25° C | 96% | 1023.9 hPa | 0 mm | - | 113 W/m² | - |
| 1788092745 | 24.44° C | 97% | 1023.9 hPa | 0 mm | - | 97 W/m² | - |
| 1788092441 | 24.44° C | 98% | 1023.7 hPa | 0 mm | - | 84 W/m² | - |
| 1788092137 | 24.44° C | 98% | 1024 hPa | 0 mm | - | 73 W/m² | - |
| 1788091836 | 23.89° C | 98% | 1023.9 hPa | 0 mm | - | 68 W/m² | - |
| 1788091531 | 23.89° C | 98% | 1023.7 hPa | 0 mm | - | 74 W/m² | - |
| 1788091228 | 23.89° C | 98% | 1023.7 hPa | 0 mm | - | 53 W/m² | - |
| 1788090924 | 23.89° C | 98% | 1023.6 hPa | 0 mm | - | 44 W/m² | - |
| 1788090619 | 23.89° C | 98% | 1023.4 hPa | 0.51 mm | - | 40 W/m² | - |
| 1788090316 | 23.89° C | 98% | 1023.4 hPa | 0.51 mm | - | 31 W/m² | - |
| 1788090016 | 23.89° C | 98% | 1023.1 hPa | 0 mm | - | 23 W/m² | - |
| 1788089716 | 23.89° C | 98% | 1023.2 hPa | 0 mm | - | 16 W/m² | - |
| 1788089411 | 23.89° C | 97% | 1023.1 hPa | 0 mm | - | 14 W/m² | - |
| 1788089107 | 23.89° C | 97% | 1023.1 hPa | 0.51 mm | - | 13 W/m² | - |
| 1788088803 | 23.33° C | 97% | 1023.2 hPa | 0.51 mm | - | 10 W/m² | - |
| 1788088499 | 23.33° C | 97% | 1023.1 hPa | 0 mm | - | 10 W/m² | - |
| 1788088194 | 23.33° C | 97% | 1023.1 hPa | 0 mm | - | 6 W/m² | - |
| 1788087889 | 23.33° C | 97% | 1022.9 hPa | 0 mm | - | 6 W/m² | - |
| 1788087588 | 23.33° C | 97% | 1022.8 hPa | 0 mm | - | 4 W/m² | - |
| 1788087285 | 23.33° C | 97% | 1022.9 hPa | 0 mm | - | 2 W/m² | - |
| 1788086981 | 23.33° C | 97% | 1022.7 hPa | 0 mm | - | 1 W/m² | - |
| 1788086677 | 23.33° C | 97% | 1022.9 hPa | 0 mm | - | 0 W/m² | - |
| 1788086372 | 23.33° C | 97% | 1022.8 hPa | 0 mm | - | 0 W/m² | - |
* Rain latest hour (hover to see other rain measurements)
** Current wind speed in m/s (hover to see current wind gust speed)